This demonstration page uses our WeatherBlox Daily Observations layout. Learn more.

Left ArrowRight Arrow

53.62937, 11.41316

Hourly Observations for March 25, 2018

Temp ( °F °C ) Dew Point ( °F °C ) Humidity (%) Winds ( mph kmh ) Pressure ( in mb ) Visibility ( mi km ) Precip ( " mm )
6:50 am 06:50 Mostly Clear 39 4 34 1 81 81 S 3 6 29.74 1007 7 11 N/A
7:20 am 07:20 Mostly Sunny 39 4 34 1 81 81 SSE 5 7 29.74 1007 7 11 N/A
7:50 am 07:50 Mostly Sunny 39 4 32 0 75 75 VRB 2 4 29.74 1007 7 11 N/A
8:20 am 08:20 Mostly Sunny 39 4 34 1 81 81 ESE 3 6 29.74 1007 7 11 N/A
8:50 am 08:50 Mostly Sunny 39 4 34 1 81 81 SSE 3 6 29.74 1007 7 11 N/A
9:20 am 09:20 Mostly Sunny 41 5 34 1 76 76 SSE 3 6 29.77 1008 7 11 N/A
9:50 am 09:50 Mostly Sunny 41 5 34 1 76 76 VRB 2 4 29.77 1008 7 11 N/A
10:20 am 10:20 Mostly Sunny 43 6 34 1 71 71 VRB 2 4 29.77 1008 7 11 N/A
10:50 am 10:50 Mostly Sunny 45 7 34 1 66 66 VRB 2 4 29.77 1008 7 11 N/A
11:20 am 11:20 Mostly Sunny 46 8 34 1 62 62 VRB 2 4 29.77 1008 7 11 N/A
11:50 am 11:50 Mostly Sunny 48 9 34 1 58 58 VRB 2 4 29.77 1008 7 11 N/A
12:20 pm 12:20 Mostly Sunny 50 10 30 -1 47 47 VRB 2 4 29.77 1008 7 11 N/A
12:50 pm 12:50 Mostly Sunny 50 10 32 0 50 50 VRB 3 6 29.77 1008 7 11 N/A
1:20 pm 13:20 Mostly Cloudy 50 10 32 0 50 50 W 3 6 29.77 1008 30 48 N/A
1:50 pm 13:50 Mostly Cloudy 50 10 32 0 50 50 VRB 5 7 29.80 1009 30 48 N/A
2:20 pm 14:20 Mostly Sunny 50 10 30 -1 47 47 NW 5 7 29.80 1009 7 11 N/A
2:50 pm 14:50 Mostly Sunny 50 10 30 -1 47 47 NW 3 6 29.80 1009 7 11 N/A
3:20 pm 15:20 Mostly Sunny 50 10 30 -1 47 47 NW 6 9 29.80 1009 7 11 N/A
3:50 pm 15:50 Mostly Sunny 50 10 32 0 50 50 VRB 6 9 29.80 1009 7 11 N/A
4:20 pm 16:20 Mostly Sunny 48 9 34 1 58 58 VRB 5 7 29.80 1009 7 11 N/A
4:50 pm 16:50 Mostly Sunny 48 9 32 0 54 54 VRB 3 6 29.80 1009 7 11 N/A
5:20 pm 17:20 Mostly Sunny 48 9 32 0 54 54 VRB 3 6 29.80 1009 7 11 N/A
5:50 pm 17:50 Mostly Sunny 48 9 34 1 58 58 VRB 2 4 29.80 1009 7 11 N/A
6:20 pm 18:20 Mostly Sunny 46 8 34 1 62 62 WNW 3 6 29.80 1009 7 11 N/A

Powered by AerisWeather